Temp
46 42 40 48 45 44 40 39 37 43 51 43 48 48 51 55 55 55 58 59 60 61 67 66 60 54 52 50 51 52 50 51 49 47 44 43 44 43 41 42 43 42 41 39
41 37 47 47 45 44 42 39 40 46 50 42 44 47 53 54 55 58 59 60 62 63 64 61 60 52 50 53 51 51 51 51 49 50 50 50 49 45 45 41 40 42 40 39
42 45 48 46 42 42 38 38 42 40 43 41 39 41 42 48 52 56 58 60 61 60 60 62 61 54 49 49 49 51 51 51 50 51 49 37 37 35 34 35 37 38 40 39
41 45 46 39 42 43 38 44 44 41 35 31 41 35 38 49 49 49 55 56 57 58 57 56 57 51 49 51 51 51 51 50 49 49 47 46 47 44 43 44 42 39 40 39
43 42 40 39 43 44 42 43 41 36 32 31 31 30 36 43 43 50 52 54 58 56 55 58 56 54 53 51 50 50 50 48 48 48 48 46 48 48 40 40 40 39 38 38
43 43 45 46 45 45 43 39 37 32 31 25 35 35 45 41 44 45 49 54 55 55 54 52 52 51 50 49 46 44 45 46 45 47 48 46 48 42 39 38 38 37 37 36
36 40 43 45 40 39 41 35 28 25 22 29 34 33 47 46 50 51 56 53 56 53 52 51 50 51 51 46 43 41 43 44 44 45 46 45 47 40 42 40 41 37 36 36
35 38 42 44 44 42 36 38 30 22 26 36 32 28 45 49 50 50 51 51 49 49 49 48 47 46 45 43 42 40 40 40 42 43 44 44 46 43 44 41 42 40 40 41
34 34 40 41 41 44 35 33 41 33 30 25 37 38 48 56 57 53 48 46 50 49 48 48 49 47 45 42 41 40 39 39 39 41 43 42 44 43 44 40 39 40 40 39
43 36 40 39 38 39 40 40 31 28 22 23 30 36 39 46 50 53 48 48 49 50 50 48 47 49 45 42 40 39 39 40 39 40 41 42 43 43 43 39 37 37 38 37
42 41 38 37 34 40 34 33 33 35 34 27 25 31 49 50 52 49 49 48 50 50 50 50 49 49 46 42 39 39 38 38 37 38 40 40 40 40 39 38 39 38 38 37
44 39 32 36 46 39 38 38 39 32 29 33 32 32 53 51 53 54 54 54 49 49 46 46 46 45 45 45 45 40 38 37 37 38 39 40 38 38 38 39 39 39 37 37
40 33 28 30 34 33 32 36 38 39 38 31 27 31 49 50 50 51 50 45 41 40 40 41 41 41 41 42 42 43 43 39 38 37 36 35 34 36 39 39 39 38 37 36
42 34 32 27 32 34 32 33 33 30 26 28 29 31 36 40 34 35 35 39 38 38 38 39 39 40 40 41 41 41 42 44 43 38 36 36 35 36 38 38 37 36 37 35
35 28 32 32 31 31 30 29 30 27 30 27 31 33 37 29 30 32 35 34 34 34 34 36 37 38 39 39 41 41 41 40 40 40 37 38 39 38 36 35 36 35 35 35
33 21 26 21 28 29 25 29 30 30 32 33 34 33 29 30 32 31 31 32 33 35 36 36 36 37 36 36 38 38 38 37 36 36 37 39 37 36 36 36 33 32 33 34
25 20 10 16 26 22 14 25 30 31 29 24 22 22 26 26 29 31 31 30 31 32 33 34 35 36 35 35 36 37 36 36 35 34 34 35 36 33 34 34 33 33 32 33
20 11 8 7 6 -1 24 27 27 23 22 24 23 24 27 28 31 31 35 33 29 31 32 34 35 35 36 37 37 36 35 35 34 33 32 31 31 33 31 30 31 31 32 31
28 23 7 7 7 19 27 23 20 19 16 20 23 27 29 31 28 29 34 35 33 31 32 32 32 33 34 34 34 34 33 33 32 32 31 30 30 30 27 28 29 30 30 29
26 26 20 8 6 -0 12 20 27 22 7 19 19 20 22 25 17 24 32 34 33 33 32 29 30 31 31 31 30 30 31 31 30 30 29 27 26 27 26 28 26 28 29 28
1 -3 0 -7 -7 6 21 26 28 5 10 23 24 22 22 18 21 27 30 32 32 31 31 32 30 30 29 29 28 26 28 28 29 28 28 27 24 23 24 23 23 24 25 25
9 -1 -4 -7 -11 -2 25 25 18 23 28 29 25 28 27 27 28 28 29 27 28 27 28 29 27 27 28 29 28 26 25 27 26 27 27 27 23 23 24 25 20 21 23 23
11 16 7 10 10 23 24 26 32 30 27 29 28 29 27 26 26 27 25 25 25 26 27 27 25 24 25 26 25 22 24 24 24 23 23 26 27 23 24 23 22 21 19 20
20 25 19 19 25 26 30 32 32 32 31 32 29 26 25 23 24 22 23 24 24 24 24 24 22 21 21 22 22 21 21 21 18 16 17 19 24 25 23 23 23 22 21 21
23 23 17 19 25 28 29 31 32 31 28 26 25 24 22 21 20 21 21 21 21 22 22 21 20 19 18 19 18 17 16 14 13 13 14 16 19 24 24 23 23 22 23 24
26 23 20 18 29 28 29 31 26 23 22 21 19 18 21 21 19 19 18 19 19 18 18 17 17 15 14 14 12 11 11 9 8 8 11 13 15 18 23 23 22 28 28 28
MSLP
1016.38 1017.02 1016.76 1016.10 1016.43 1016.53 1016.80 1016.85 1016.45 1015.32 1014.29 1014.09 1013.11 1011.97 1011.43 1010.68 1010.18 1009.13 1007.96 1007.15 1006.82 1006.02 1004.67 1005.56 1005.77 1006.21 1006.93 1007.50 1008.01 1008.09 1008.93 1009.47 1010.77 1011.63 1012.39 1013.60 1013.36 1013.95 1015.06 1015.58 1016.15 1017.10 1017.93 1018.72
1017.31 1016.90 1016.17 1016.17 1016.41 1016.71 1016.85 1016.85 1016.31 1015.10 1014.17 1014.15 1012.77 1010.45 1010.26 1009.66 1008.47 1007.22 1007.02 1006.17 1005.26 1004.97 1005.02 1005.10 1005.18 1005.82 1006.27 1006.35 1006.60 1007.43 1007.80 1008.57 1009.10 1009.63 1010.16 1010.98 1011.93 1012.93 1013.33 1014.37 1015.18 1015.96 1016.93 1017.87
1016.56 1015.89 1015.77 1016.22 1016.47 1016.49 1016.50 1016.62 1015.48 1015.30 1014.64 1014.00 1012.85 1009.34 1008.78 1007.57 1007.25 1006.60 1006.18 1005.19 1004.98 1005.16 1004.85 1004.40 1004.63 1004.89 1005.57 1006.02 1005.95 1006.01 1006.23 1006.91 1007.50 1008.65 1009.85 1011.00 1011.90 1012.98 1013.60 1014.00 1014.55 1015.12 1015.93 1016.88
1016.43 1015.52 1015.86 1016.16 1016.30 1015.91 1016.22 1014.88 1015.08 1015.51 1015.89 1015.07 1013.62 1009.52 1008.42 1007.34 1006.82 1006.40 1004.90 1004.75 1004.70 1004.21 1004.57 1004.57 1004.18 1004.95 1005.13 1004.79 1004.86 1005.04 1005.31 1005.66 1006.60 1007.52 1008.64 1009.26 1009.56 1010.69 1010.72 1011.31 1012.99 1013.84 1014.53 1015.42
1015.40 1015.09 1015.38 1015.81 1014.95 1015.06 1014.62 1014.50 1015.08 1015.60 1016.13 1015.31 1014.02 1013.42 1007.13 1006.83 1006.69 1005.50 1004.78 1004.70 1004.63 1004.39 1004.31 1004.40 1004.89 1004.59 1004.25 1004.07 1003.96 1004.04 1004.71 1005.46 1005.53 1006.12 1006.69 1007.67 1008.34 1009.07 1009.97 1011.16 1012.22 1013.49 1014.23 1014.55
1015.25 1014.86 1014.64 1014.09 1014.01 1014.30 1014.64 1014.97 1015.70 1016.51 1016.46 1015.43 1013.46 1012.79 1001.69 1005.91 1005.63 1005.29 1005.00 1004.51 1004.31 1004.10 1004.33 1004.54 1004.43 1004.18 1003.99 1003.79 1003.71 1003.80 1004.05 1004.43 1005.38 1005.66 1006.11 1006.59 1006.93 1008.00 1009.18 1010.23 1011.47 1012.50 1013.53 1014.33
1014.94 1014.30 1013.59 1013.62 1014.18 1014.42 1014.66 1015.64 1016.39 1016.76 1016.82 1014.26 1012.19 1011.69 1004.77 1005.17 1004.57 1004.58 1004.62 1004.94 1004.48 1004.32 1004.40 1004.61 1004.49 1004.26 1003.52 1004.05 1004.04 1004.40 1004.54 1004.37 1004.23 1004.93 1005.38 1006.00 1006.50 1007.35 1008.13 1008.79 1009.72 1011.10 1012.21 1013.10
1014.80 1013.39 1013.21 1013.07 1013.37 1013.52 1014.30 1014.56 1015.57 1015.10 1014.90 1013.26 1012.55 1009.44 1003.95 1003.85 1003.67 1003.55 1003.96 1004.19 1004.55 1004.61 1004.67 1004.57 1004.46 1004.26 1003.78 1003.91 1003.84 1004.01 1004.56 1004.72 1004.61 1005.01 1004.91 1005.23 1005.64 1006.24 1006.92 1008.05 1008.46 1009.36 1010.21 1010.90
1013.99 1012.42 1012.43 1012.66 1012.84 1013.14 1013.83 1014.11 1013.37 1013.61 1013.28 1013.25 1011.18 1008.33 1006.19 1002.45 1002.61 1003.53 1004.12 1004.95 1005.07 1004.95 1004.96 1004.36 1004.17 1004.24 1003.83 1003.76 1003.92 1004.04 1004.14 1004.42 1004.70 1004.52 1004.85 1005.27 1005.02 1005.23 1005.57 1006.69 1007.92 1008.77 1009.54 1010.44
1013.66 1013.21 1012.20 1012.42 1012.88 1013.03 1013.41 1013.30 1013.70 1013.81 1012.92 1011.46 1009.51 1007.68 1005.58 1003.67 1003.32 1003.64 1004.17 1005.13 1004.87 1004.63 1004.63 1004.22 1004.02 1003.84 1003.70 1004.01 1004.05 1003.96 1003.90 1004.05 1004.55 1004.72 1004.58 1004.91 1005.04 1005.43 1005.56 1005.74 1006.84 1007.62 1008.50 1009.65
1013.98 1014.22 1012.58 1013.27 1012.43 1012.76 1013.67 1012.91 1013.06 1013.16 1012.40 1010.44 1008.62 1006.56 1005.21 1004.81 1004.23 1004.20 1004.72 1004.75 1005.17 1005.30 1005.20 1004.62 1004.26 1004.32 1004.71 1004.87 1005.05 1005.25 1005.03 1005.43 1004.49 1004.34 1004.30 1004.32 1004.41 1005.04 1005.36 1005.41 1005.58 1006.61 1007.64 1008.47
1014.43 1013.90 1013.81 1011.89 1011.82 1012.01 1012.63 1012.55 1012.85 1012.78 1011.38 1010.20 1008.05 1005.34 1005.44 1005.18 1004.96 1004.79 1004.67 1004.94 1005.81 1006.12 1006.74 1006.03 1005.72 1005.71 1005.89 1006.14 1005.40 1004.74 1004.65 1004.92 1004.81 1005.00 1005.22 1004.92 1003.96 1004.49 1005.21 1004.93 1004.76 1005.58 1006.24 1007.35
1014.66 1014.38 1013.87 1013.00 1012.05 1012.65 1013.36 1012.62 1012.50 1012.07 1010.90 1009.26 1007.80 1005.36 1005.66 1006.23 1006.66 1006.75 1006.59 1006.79 1007.58 1008.49 1008.59 1007.72 1007.50 1007.42 1007.53 1007.16 1006.35 1005.50 1004.92 1004.81 1004.22 1004.29 1004.73 1004.76 1004.62 1005.10 1004.46 1004.17 1004.28 1004.98 1005.66 1006.22
1015.67 1015.01 1014.55 1014.18 1014.00 1013.80 1014.04 1014.00 1013.68 1013.87 1012.30 1010.35 1009.34 1008.23 1008.89 1009.42 1010.31 1010.29 1009.93 1009.63 1009.55 1009.70 1009.68 1009.18 1008.69 1008.20 1007.98 1008.15 1007.67 1006.53 1005.79 1005.30 1004.57 1004.18 1004.17 1004.02 1003.86 1003.33 1003.47 1004.25 1004.39 1004.47 1004.98 1005.59
1016.84 1016.03 1015.96 1015.53 1015.23 1015.42 1015.26 1014.43 1013.91 1013.19 1012.46 1011.68 1010.36 1010.15 1010.65 1012.08 1012.57 1012.42 1012.34 1011.65 1011.48 1011.11 1010.85 1010.57 1009.50 1008.88 1008.50 1008.36 1008.31 1007.58 1006.55 1005.96 1005.38 1004.59 1004.11 1003.40 1002.69 1002.55 1002.76 1003.19 1003.63 1004.78 1004.97 1004.96
1018.25 1017.93 1018.03 1017.33 1016.20 1016.67 1015.92 1014.92 1013.59 1012.91 1011.89 1011.23 1011.35 1011.57 1013.37 1013.58 1013.82 1013.51 1013.28 1013.08 1012.84 1012.20 1011.39 1010.70 1010.57 1010.08 1009.30 1009.12 1008.69 1008.08 1007.19 1006.71 1005.80 1005.15 1004.34 1003.82 1003.23 1002.74 1002.23 1002.54 1003.07 1003.68 1004.10 1004.78
1019.67 1019.61 1019.76 1018.07 1018.01 1017.92 1016.21 1013.94 1013.19 1012.43 1012.73 1013.62 1013.82 1014.43 1014.14 1014.26 1014.24 1014.03 1013.96 1013.51 1013.33 1012.93 1012.16 1011.59 1011.29 1010.69 1010.11 1009.17 1008.73 1008.33 1007.89 1007.11 1006.14 1005.56 1004.91 1003.85 1003.39 1002.65 1001.80 1001.62 1002.13 1002.48 1002.69 1003.58
1019.42 1020.35 1021.14 1020.13 1019.52 1018.35 1014.83 1014.22 1014.18 1014.34 1015.01 1015.48 1015.69 1015.38 1014.95 1014.83 1014.33 1014.09 1013.40 1013.58 1013.44 1012.99 1012.32 1011.84 1011.53 1010.88 1010.23 1009.17 1008.57 1008.39 1008.00 1007.24 1006.59 1005.97 1005.31 1004.32 1003.34 1002.70 1001.96 1001.72 1001.44 1001.73 1002.20 1002.71
1019.72 1020.81 1021.67 1021.99 1020.54 1017.10 1015.55 1015.64 1015.81 1015.82 1016.04 1016.20 1016.20 1015.68 1015.15 1014.94 1014.53 1013.95 1013.58 1013.49 1013.05 1012.69 1012.38 1012.25 1011.94 1011.31 1010.38 1009.44 1008.90 1008.51 1008.00 1007.23 1006.76 1005.80 1005.24 1004.38 1003.72 1003.01 1002.62 1001.84 1001.29 1001.76 1001.96 1001.86
1020.02 1020.58 1022.01 1022.56 1021.59 1019.36 1017.32 1016.43 1015.85 1016.36 1016.54 1016.04 1015.94 1015.59 1015.29 1014.96 1014.65 1013.27 1013.35 1012.97 1012.59 1012.38 1012.27 1012.27 1011.76 1011.39 1010.83 1009.91 1009.51 1008.73 1007.94 1007.63 1006.84 1006.16 1005.59 1004.92 1004.18 1003.31 1002.31 1002.02 1001.97 1002.56 1001.34 1002.06
1021.87 1022.35 1023.32 1022.82 1021.98 1019.06 1017.16 1016.38 1015.63 1016.24 1015.89 1015.01 1015.09 1014.98 1014.93 1014.94 1014.42 1013.13 1012.84 1012.57 1012.54 1012.26 1011.98 1011.85 1011.56 1010.91 1010.51 1010.11 1009.65 1008.92 1008.50 1007.69 1007.06 1006.65 1005.28 1004.81 1004.36 1003.70 1002.95 1002.12 1002.44 1002.62 1002.10 1001.84
1021.72 1022.44 1023.32 1022.75 1021.71 1019.22 1016.47 1015.75 1015.71 1014.85 1014.41 1014.54 1014.47 1014.36 1014.17 1013.93 1013.61 1013.28 1012.70 1012.46 1012.23 1011.96 1011.58 1011.43 1011.02 1010.46 1010.20 1009.89 1009.55 1008.92 1008.81 1008.24 1007.29 1006.54 1005.57 1004.76 1004.74 1003.61 1003.04 1002.42 1001.76 1002.16 1002.32 1002.52
1020.49 1020.05 1020.47 1020.38 1018.15 1016.56 1015.67 1014.79 1013.93 1014.08 1013.99 1013.68 1013.85 1013.52 1013.69 1013.79 1013.34 1012.93 1012.69 1012.31 1011.97 1011.72 1011.34 1011.12 1010.90 1010.34 1009.94 1009.68 1009.34 1008.92 1008.52 1008.10 1007.45 1007.10 1006.41 1005.21 1004.25 1003.87 1002.91 1002.62 1002.01 1001.83 1001.90 1002.19
1018.15 1018.05 1018.15 1017.78 1016.01 1015.49 1014.36 1013.58 1013.51 1013.31 1013.10 1012.95 1013.18 1013.58 1013.83 1013.80 1013.27 1013.07 1012.77 1012.08 1011.70 1011.43 1011.17 1010.96 1010.57 1009.94 1009.42 1009.37 1009.20 1009.05 1008.59 1008.33 1007.95 1007.29 1006.51 1005.49 1004.20 1003.15 1002.17 1001.53 1001.78 1001.68 1001.50 1001.75
1016.68 1016.80 1016.49 1015.57 1014.60 1014.14 1013.57 1013.16 1012.91 1012.84 1013.16 1013.50 1013.75 1014.08 1014.23 1014.27 1013.53 1013.44 1012.58 1011.93 1011.48 1010.99 1010.67 1010.66 1010.26 1009.72 1009.11 1009.01 1008.86 1009.01 1008.91 1008.54 1007.89 1006.92 1005.94 1005.11 1004.09 1002.50 1001.52 1000.99 1000.81 1000.87 1000.54 1000.19
1015.48 1015.16 1015.43 1014.27 1013.58 1013.59 1012.97 1012.88 1013.50 1013.95 1014.32 1014.69 1014.85 1014.48 1014.36 1014.35 1013.75 1013.58 1012.79 1012.12 1011.62 1010.92 1010.47 1010.25 1009.96 1009.69 1009.19 1009.24 1009.03 1009.01 1009.08 1008.97 1008.09 1006.73 1005.63 1004.66 1003.73 1002.62 1001.11 1000.41 1000.02 999.57 999.61 999.66
Wind_Speed
0 4 9 16 11 2 2 5 8 9 13 6 18 19 18 17 16 21 22 22 20 22 23 13 9 10 10 9 13 17 17 18 14 13 13 9 14 12 10 9 12 12 10 10
4 6 15 4 4 8 8 9 14 11 16 4 14 24 20 18 20 22 21 23 24 18 14 13 11 7 11 14 17 14 18 17 17 14 12 8 12 9 10 8 10 12 12 12
9 6 3 5 4 9 5 7 13 12 8 6 10 15 8 7 13 20 20 22 19 17 17 19 12 10 8 11 14 17 19 19 18 17 10 3 6 4 4 7 8 10 14 13
6 3 5 4 8 8 10 13 14 9 4 5 5 23 5 8 9 6 18 14 14 15 10 11 13 6 9 14 11 14 15 18 17 18 15 19 13 11 10 11 10 12 16 15
9 7 5 5 11 8 12 3 4 2 4 6 3 3 5 5 7 15 10 10 14 10 10 13 12 10 10 10 12 12 13 14 16 19 19 16 16 11 5 5 13 12 11 14
8 2 5 9 6 8 2 3 5 5 3 6 10 7 30 5 6 3 5 6 10 11 8 8 8 10 9 8 7 7 10 12 14 17 19 21 20 11 10 11 11 11 10 10
2 6 4 4 3 1 4 5 5 4 1 12 6 6 25 8 11 9 14 9 13 9 9 9 10 13 11 8 6 5 8 11 14 17 17 17 16 13 16 15 13 14 11 11
3 17 8 6 9 9 8 11 7 8 12 19 6 10 21 11 10 10 8 9 7 8 6 7 8 8 9 9 6 7 7 6 9 12 15 14 15 11 11 13 11 12 13 14
5 11 2 5 2 5 4 5 5 5 3 3 12 17 17 27 25 13 8 3 8 7 8 8 11 8 8 7 7 8 8 8 9 13 11 13 13 15 15 12 9 10 10 10
4 15 6 3 2 4 7 1 2 2 4 18 10 20 17 20 19 14 7 8 9 9 11 10 7 9 6 7 6 6 8 9 8 10 10 10 12 12 11 11 13 12 11 12
1 5 16 3 9 17 2 5 5 3 7 11 13 10 15 22 19 13 10 4 6 9 11 10 9 9 8 4 3 7 6 6 7 8 10 10 11 11 10 12 13 14 13 15
9 5 12 30 21 3 5 8 9 10 10 13 21 21 17 15 19 19 22 15 8 8 12 13 15 15 16 16 14 7 6 6 6 6 7 9 9 11 11 13 14 14 15 14
2 5 4 4 7 2 5 5 12 20 21 26 24 15 7 11 15 15 18 20 17 16 17 16 14 14 14 15 17 17 14 8 7 6 7 7 7 9 14 15 13 13 13 15
2 6 10 15 16 10 16 8 10 11 11 15 15 17 13 17 15 18 20 16 14 16 17 17 17 16 15 14 14 15 16 16 15 7 8 10 11 14 13 9 9 13 15 16
2 7 6 12 11 10 16 21 22 25 26 26 26 27 15 10 13 13 10 14 17 19 19 19 18 16 15 17 17 16 14 16 16 15 12 12 11 9 7 7 9 9 12 13
3 5 8 14 21 17 19 23 29 28 30 27 21 16 7 7 10 17 13 15 18 18 18 18 18 18 16 18 16 17 17 17 13 14 16 14 10 11 13 12 12 12 12 12
4 3 1 17 20 10 13 18 19 14 7 4 5 5 9 8 14 12 11 9 16 17 17 17 18 17 16 16 15 17 17 16 14 14 15 15 14 11 11 11 12 13 14 12
8 4 3 8 5 4 8 6 8 8 6 5 1 5 6 8 10 10 10 9 13 15 16 16 15 16 16 16 15 16 15 16 14 12 12 13 12 14 7 7 12 11 11 14
14 8 3 4 8 12 14 6 3 5 5 3 4 8 9 8 9 7 6 10 13 11 12 13 15 16 16 15 14 15 16 15 15 15 15 13 13 11 6 7 8 9 10 11
5 8 5 3 3 5 5 4 7 3 5 7 7 6 7 5 6 11 9 12 12 11 10 12 14 14 14 14 15 16 16 15 14 14 14 13 12 11 6 6 5 6 7 8
4 4 5 3 4 9 5 6 5 6 8 5 2 6 7 5 7 12 13 16 12 11 11 11 12 11 13 12 12 12 14 15 15 16 15 14 9 8 7 4 2 3 5 6
5 4 4 4 2 10 5 5 3 7 5 12 7 13 12 9 12 12 17 14 15 15 13 13 11 12 12 11 11 13 13 15 15 17 16 14 12 6 5 5 3 2 4 6
7 8 7 11 10 6 6 13 17 7 8 16 11 12 6 11 14 15 13 15 14 15 15 13 11 13 13 11 10 13 15 14 14 15 17 18 14 9 6 5 5 4 4 4
6 8 11 14 15 19 21 19 10 14 18 15 7 6 7 12 13 13 15 15 14 15 15 13 14 16 16 11 12 12 13 13 14 17 16 15 16 13 8 6 6 6 7 7
8 4 7 13 18 18 18 16 17 15 6 6 5 5 8 9 16 14 15 17 18 17 16 14 14 15 17 16 16 12 13 13 16 17 15 15 12 15 10 9 8 9 10 12
10 17 12 16 20 16 18 9 4 4 5 6 9 14 13 12 15 15 18 18 18 19 18 16 17 17 17 15 16 15 14 12 15 17 14 12 11 12 11 9 9 20 20 21
Wind_Direction
45 124 199 227 198 148 191 231 247 257 266 310 273 267 265 267 280 268 266 265 270 259 265 276 254 207 203 200 198 199 190 194 180 186 181 187 203 188 190 190 184 178 177 173
45 221 230 78 149 220 245 270 271 284 269 245 274 279 275 252 251 256 266 275 269 279 282 267 259 209 200 207 210 199 203 193 194 193 198 195 193 206 195 181 178 177 171 173
196 227 176 188 242 248 203 224 257 250 315 254 297 277 227 266 239 255 268 261 275 272 278 280 282 225 213 219 208 205 202 197 194 195 179 87 81 68 131 180 177 177 175 176
233 269 223 143 225 199 262 231 251 270 357 254 51 299 187 226 244 223 248 267 277 279 272 274 276 295 227 232 224 215 204 196 193 181 183 191 195 190 205 190 187 183 182 180
246 170 161 182 220 147 235 192 244 165 198 304 157 248 204 162 238 246 251 254 275 276 266 295 317 282 250 238 223 213 202 201 189 188 188 189 200 200 158 152 172 182 185 182
247 323 191 214 219 188 59 61 46 42 102 282 176 164 287 154 206 256 242 261 268 278 322 308 284 281 276 273 250 205 188 192 186 189 194 199 201 178 159 162 172 180 180 184
217 215 241 176 254 85 139 80 307 324 63 242 161 179 257 261 268 226 274 271 270 311 325 315 320 323 331 300 274 234 206 203 188 193 195 197 198 183 186 177 178 173 179 189
202 287 187 171 198 204 191 169 186 239 267 274 143 237 260 239 255 251 254 241 292 301 298 316 311 319 330 317 278 214 212 217 192 190 199 196 196 190 190 189 182 185 189 194
198 261 233 185 227 171 195 186 211 263 266 288 268 272 299 278 276 297 258 335 297 311 311 325 335 323 309 302 261 207 194 196 202 197 197 205 200 193 193 176 175 182 184 181
294 299 195 213 106 208 190 263 282 348 230 252 232 252 260 290 308 312 294 330 337 325 319 316 297 312 317 290 276 235 205 205 203 204 204 204 207 205 194 166 177 177 172 169
14 259 276 182 192 242 215 225 217 270 225 251 256 239 256 270 290 301 310 258 266 284 290 288 321 331 348 335 285 288 302 275 215 212 208 204 200 203 189 184 180 181 175 175
254 257 263 269 266 199 182 236 246 248 244 250 263 256 257 286 299 308 308 319 286 305 10 15 19 17 10 357 354 336 300 264 254 251 246 243 200 188 200 201 192 185 181 178
117 223 271 298 281 84 207 246 246 262 265 253 259 267 255 306 313 310 323 9 29 16 6 12 14 11 2 354 354 355 351 306 252 223 226 230 217 226 218 208 195 187 181 177
284 235 239 260 278 327 289 305 320 309 290 299 283 305 321 305 350 348 341 8 12 13 6 0 360 359 360 352 346 348 345 346 335 277 233 222 220 216 213 217 205 191 190 184
12 272 284 290 292 294 300 292 285 275 278 271 286 287 314 23 345 343 357 12 10 2 358 350 350 347 348 346 340 342 344 342 337 330 285 259 250 235 216 211 200 204 200 190
341 283 334 288 289 295 289 284 277 275 276 277 285 284 17 29 2 2 16 5 357 349 343 342 337 337 345 336 336 336 340 334 332 327 318 291 248 228 217 208 189 184 188 194
230 218 121 273 290 316 288 257 258 265 343 344 297 10 328 2 346 338 315 345 344 341 335 331 328 327 330 329 331 332 332 329 333 330 324 317 289 245 222 204 194 200 193 183
229 144 138 261 50 218 242 52 69 109 103 76 77 294 290 288 308 300 284 315 327 320 322 321 321 321 321 326 328 328 326 329 330 325 325 323 308 284 259 211 205 198 191 193
214 223 253 227 209 263 294 29 15 65 280 215 244 293 273 290 286 287 4 319 306 293 305 313 314 315 319 322 327 326 321 326 324 333 333 330 319 292 265 235 215 209 201 193
42 206 235 4 235 239 234 240 243 113 264 225 203 255 251 261 290 300 326 319 308 303 290 288 292 303 308 320 329 326 322 322 321 332 328 323 318 297 271 268 252 238 195 207
8 357 180 248 249 286 237 254 277 89 247 289 247 284 242 228 219 279 304 313 303 297 297 296 295 295 298 305 309 318 318 322 329 319 321 318 307 294 271 212 211 228 203 162
164 162 231 63 42 286 205 343 171 254 280 287 260 275 241 253 270 278 296 299 304 302 304 299 295 298 300 306 311 308 307 312 319 320 319 313 291 282 271 245 173 186 187 189
254 200 206 182 220 249 237 263 281 272 264 282 278 255 245 270 271 285 287 290 288 292 297 300 293 293 292 296 300 301 306 313 316 317 313 311 301 273 244 247 224 188 169 188
248 230 244 264 259 254 265 273 275 278 277 275 254 266 254 262 278 284 288 286 289 290 288 292 293 291 290 295 299 298 306 314 311 304 301 300 301 284 255 220 225 219 197 193
245 205 229 250 266 272 264 262 266 277 316 315 305 285 289 291 284 287 286 288 291 290 290 288 281 280 286 300 299 304 309 313 304 299 299 296 290 289 269 241 223 222 221 206
236 248 244 255 269 266 275 303 37 335 338 343 322 309 298 291 292 293 284 287 290 291 293 289 286 285 287 291 293 301 303 296 293 292 295 291 293 289 280 255 248 236 232 223